Regional Weather Roundup
Issued by NWS

Home | Current Version | Previous Version | Graphics & Text | Print | Product List | Glossary On
Versions: 1 2 3 4 5 6 7 8 9 10 11 12 13 14 15 16 17 18 19 20 21 22 23 24 25 26 27 28 29 30 31 32 33 34 35 36 37 38 39 40 41 42 43 44 45 46 47 48 49 50
000
ASUS43 KLOT 030112
RWRIL

ILLINOIS REGIONAL WEATHER ROUNDUP
NATIONAL WEATHER SERVICE CHICAGO/ROMEOVILLE IL
800 PM CDT THU JUL 02 2015

NOTE: "FAIR" INDICATES FEW OR NO CLOUDS BELOW 12,000 FEET WITH NO
SIGNIFICANT WEATHER AND/OR OBSTRUCTIONS TO VISIBILITY.

* THESE STATIONS ARE NOT UNDER NWS QUALITY CONTROL. THEY ALSO MAY NOT
  REPORT WEATHER SUCH AS PRECIPITATION OR FOG.

ILZ001-002-007-009-015-016-024-030200-
NORTHWEST ILLINOIS

CITY           SKY/WX    TMP DP  RH WIND       PRES   REMARKS
MOLINE         CLOUDY    69  56  62 NE8       29.95S
STERLING*      CLOUDY    66  57  72 NE3       29.97R
SAVANNA*       MOCLDY    67  54  61 CALM      29.96S
$$

ILZ003-004-008-010-011-017-018-030200-
NORTH CENTRAL ILLINOIS

CITY           SKY/WX    TMP DP  RH WIND       PRES   REMARKS
ROCKFORD       CLOUDY    68  53  58 E7        29.98S
FREEPORT*      MOCLDY    63  53  68 CALM      29.99S
ROCHELLE*      MOCLDY    66  56  70 E6        29.97S
DE KALB*       MOCLDY    63  54  73 NE7       29.98S
PERU*          CLOUDY    68  56  66 NE7       29.96R
$$

ILZ005-006-012>014-019>023-030200-
NORTHEAST ILLINOIS

CITY           SKY/WX    TMP DP  RH WIND       PRES   REMARKS
CHICAGO-OHARE  MOCLDY    61  49  64 NE10      29.98R
CHICAGO-MIDWAY CLOUDY    64  53  67 NE10      29.97R
AURORA         MOCLDY    66  54  65 NE5       29.97S
LANSING*       MOCLDY    60  53  76 NE9       29.97S
JOLIET*        MOCLDY    67  56  69 NE9       29.96S
WAUKEGAN       PTCLDY    57  50  77 N6        29.99S
DUPAGE AIRPORT MOCLDY    64  53  67 NE8       29.96S
KANKAKEE*      CLOUDY    65  58  77 N6        29.95R
WHEELING       PTCLDY    59  49  69 N10       30.00R
MORRIS*        MOCLDY    66  56  70 NE5       29.94R
ROMEOVILLE*    MOCLDY    64  53  67 NE9       29.97R
NORTHERLY ISL    N/A     59  51  75 MISG        N/A
$$

LMZ740>746-030200-
SOUTHERN LAKE MICHIGAN

STATION/POSITION SKY/WX   TEMP    WIND        PRES    VSBY  WAVE
                          AIR SEA DIR/SP/G                  HT/PER
                          (F)     (DEG/KT/KT) (MB)    (MI)  (FT/S)
HARRISON CRIB              57     360/ 16/ 19   N/A
BURNHAM HARBOR             58      10/ 12/ 16   N/A
CALUMET HARBOR             59     350/  9/ 15   N/A
BURNS HARBOR               63      40/ 11/ 13 1015.6S
MICHIGAN CITY              62      20/ 17/ 19   N/A
MICHIGAN CITY 6N           63 64   50/ 16/ 19   N/A           5/ 4
ST. JOSEPH                 58 63                N/A           3/ 4
$$

ILZ025>027-034>036-040-047-049-050-058-095>099-030200-
WEST-CENTRAL ILLINOIS

CITY           SKY/WX    TMP DP  RH WIND       PRES   REMARKS
QUINCY         CLOUDY    67  59  75 NE8       29.92F
GALESBURG*     CLOUDY    67  59  76 N6        29.95S
MACOMB*        CLOUDY    67  61  82 N5        29.96S
JACKSONVILLE*  MOCLDY    70  64  81 N5        29.91F
PITTSFIELD*    CLOUDY    68  61  77 CALM      29.93S
$$

ILZ028>032-037-038-041>044-048-051>054-059>061-030200-
CENTRAL ILLINOIS

CITY           SKY/WX    TMP DP  RH WIND       PRES   REMARKS
PONTIAC        CLOUDY    69  61  76 NE8       29.95R
BLOOMINGTON    CLOUDY    70  62  75 NE13      29.93R
DECATUR        CLOUDY    70  62  76 N7        29.90S
PEORIA         CLOUDY    72  57  59 N5        29.93S
LACON*         CLOUDY    67  58  73 CALM      29.93S
LINCOLN*       CLOUDY    72  61  68 CALM      29.92R
SPRINGFIELD    CLOUDY    71  63  75 N5        29.92R
TAYLORVILLE    CLOUDY    68  63  83 N3        29.91R
$$

ILZ033-039-045-046-055>057-062-063-030200-
EAST-CENTRAL ILLINOIS

CITY           SKY/WX    TMP DP  RH WIND       PRES   REMARKS
CHAMPAIGN      MOCLDY    73  61  65 NE7       29.90R
DANVILLE*      CLOUDY    71  63  75 NE6       29.88S
RANTOUL*       MOCLDY    73  59  61 NE9       29.91S
MATTOON        MOCLDY    72  66  81 N7        29.87S
PARIS*         CLOUDY    73  66  79 N5        29.89R
$$

ILZ079-100>102-030200-
SOUTHWEST ILLINOIS

CITY           SKY/WX    TMP DP  RH WIND       PRES   REMARKS
BELLEVILLE     CLOUDY    74  68  83 N3        29.87R
CAHOKIA*       CLOUDY    75  65  70 N8        29.89R
SPARTA*        CLOUDY    74  67  79 CALM      29.88S
$$

ILZ064>066-069>071-074>076-080>082-084>086-088>090-092>094-030200-
SOUTH-CENTRAL ILLINOIS

CITY           SKY/WX    TMP DP  RH WIND       PRES   REMARKS
CARBONDALE     CLOUDY    74  68  81 CALM      29.88R
CAIRO*         MOCLDY    78  72  82 N6        29.84S HX  81
EFFINGHAM*     CLOUDY    73  63  72 NW3       29.89R
MARION         CLOUDY    73  70  88 CALM      29.89R
MT. VERNON     MOCLDY    73  66  78 CALM      29.87S
CENTRALIA*     CLOUDY    73  66  78 N3        29.88R
SALEM*         CLOUDY    75  67  78 N5        29.88R
METROPOLIS*    CLOUDY    78  73  83 N5        29.85R HX  81
$$

ILZ067-068-072-073-078-083-087-091-030200-
SOUTHEAST ILLINOIS

CITY           SKY/WX    TMP DP  RH WIND       PRES   REMARKS
LAWRENCEVILLE  MOCLDY    74  69  85 N5        29.86R
FLORA*         MOCLDY    74  68  82 CALM      29.87R
FAIRFIELD*     MOCLDY    73  70  92 CALM      29.85R
HARRISBURG*    CLOUDY    74  71  91 NW3       29.88R
ROBINSON*      MOCLDY    74  68  82 N3        29.86S
CARMI*         CLOUDY    75  66  75 N6        29.85R
$$

ABBREVIATIONS USED IN REMARKS
   TC - TEMPERATURE IN CELSIUS
  WCI - WIND CHILL INDEX
   HX - HEAT INDEX
  VSB - VISIBILITY
$$



USA.gov is the U.S. government's official web portal to all federal, state and local government web resources and services.